This is the latest recevied weather packets stored in our database for station/object ZL2ARL. If no packets are shown the sender has not sent any weather packets the latest 10 day(s).
| Time | Temp. | Humidity | Pressure | Rain* | Wind** | Luminosity | Snow |
|---|---|---|---|---|---|---|---|
| 1777578655 | 5° C | 89% | 1038.9 hPa | 0 mm | - | 29 W/m² | - |
| 1777578030 | 4.44° C | 89% | 1038.9 hPa | 0 mm | - | 23 W/m² | - |
| 1777574421 | 4.44° C | 88% | 1039 hPa | 0 mm | - | 0 W/m² | - |
| 1777570225 | 5° C | 95% | 1039.2 hPa | 0 mm | - | 0 W/m² | - |
| 1777563045 | 2.22° C | 96% | 1039.4 hPa | 0 mm | - | 0 W/m² | - |
| 1777561230 | 2.78° C | 96% | 1039.6 hPa | 0 mm | - | 0 W/m² | - |
| 1777560020 | 2.78° C | 96% | 1039.8 hPa | 0 mm | - | 0 W/m² | - |
| 1777556430 | 2.78° C | 95% | 1040.1 hPa | 0 mm | - | 0 W/m² | - |
| 1777553425 | 2.78° C | 94% | 1040.3 hPa | 0 mm | - | 0 W/m² | - |
| 1777546225 | 3.89° C | 92% | 1040.3 hPa | 0 mm | - | 0 W/m² | - |
| 1777545640 | 3.89° C | 92% | 1040.2 hPa | 0 mm | - | 0 W/m² | - |
| 1777540840 | 4.44° C | 90% | 1039.8 hPa | 0 mm | - | 0 W/m² | - |
| 1777532430 | 7.22° C | 78% | 1039.4 hPa | 0 mm | - | 0 W/m² | - |
| 1777530635 | 8.33° C | 76% | 1039.2 hPa | 0 mm | - | 0 W/m² | - |
| 1777528820 | 9.44° C | 75% | 1038.9 hPa | 0 mm | - | 0 W/m² | - |
| 1777528236 | 9.44° C | 75% | 1038.9 hPa | 0 mm | - | 0 W/m² | - |
| 1777526421 | 10.56° C | 71% | 1038.8 hPa | 0 mm | - | 12 W/m² | - |
| 1777524627 | 11.11° C | 67% | 1038.8 hPa | 0 mm | - | 39 W/m² | - |
| 1777524021 | 11.67° C | 66% | 1038.7 hPa | 0 mm | - | 57 W/m² | - |
| 1777521621 | 13.33° C | 59% | 1038.5 hPa | 0 mm | - | 129 W/m² | - |
| 1777516217 | 15° C | 56% | 1038.3 hPa | 0 mm | - | 328 W/m² | - |
| 1777512629 | 14.44° C | 58% | 1038.6 hPa | 0 mm | - | 435 W/m² | - |
| 1777509019 | 13.33° C | 66% | 1038.7 hPa | 0 mm | - | 484 W/m² | - |
| 1777506619 | 12.78° C | 66% | 1038.7 hPa | 0 mm | - | 475 W/m² | - |
| 1777502424 | 12.22° C | 68% | 1038.4 hPa | 0 mm | - | 389 W/m² | - |
* Rain latest hour (hover to see other rain measurements)
** Current wind speed in m/s (hover to see current wind gust speed)